Istanbul, Turkey

7:29 PM EEST on September 27, 2016 (GMT +0300)
Ataturk

Weather History for LTBA - November, 2011

Change the Weather History Date:

Sunday, November 27, 2011

  Actual Average Record
Temperature  
Mean Temperature 46 °F -  
Max Temperature 49 °F 55 °F 68 °F (2010)
Min Temperature 42 °F 45 °F 32 °F (2005)
Degree Days  
Heating Degree Days 20    
Moisture  
Dew Point 35 °F    
Average Humidity 64    
Maximum Humidity 76    
Minimum Humidity 42    
Precipitation  
Precipitation 0.00 in - - ()
Sea Level Pressure  
Sea Level Pressure 30.32 in    
Wind  
Wind Speed 7 mph ()    
Max Wind Speed 12 mph    
Max Gust Speed 18 mph    
Visibility 5.1 miles    
Events      
Averages and records for this station are not official NWS values.
T = Trace of Precipitation, MM = Missing Value Source: Averaged Metar Reports

Daily Weather History Graph

Daily Weather History Graph

Search for Another Location

Airport or City:

Trip Planner

Search our weather history database for the weather conditions in past years. The results will help you decide how hot, cold, wet, or windy it might be!

Date:

Astronomy

Nov. 27, 2011 Rise Set
Actual Time 7:05 AM EET 4:38 PM EET
Civil Twilight 6:35 AM EET 5:09 PM EET
Nautical Twilight 6:01 AM EET 5:43 PM EET
Astronomical Twilight 5:28 AM EET 6:15 PM EET
Moon 9:13 AM EET 6:54 PM EET
Length of Visible Light 10h 34m
Length of Day
9h 33m
Waxing Crescent, 6% of the Moon is Illuminated
Nov 27
Waxing Crescent
Dec 2
First Quarter
Dec 10
Full
Dec 18
Last Quarter
Dec 24
New

Hourly Weather History & Observations

Time (EET) Temp. Windchill Dew Point Humidity Pressure Visibility Wind Dir Wind Speed Gust Speed Precip Events Conditions
12:20 AM 46.4 °F 42.9 °F 28.4 °F 50% 30.33 in 6.2 mi East 6.9 mph 18.4 mph N/A   Mostly Cloudy
12:50 AM 46.4 °F 42.9 °F 28.4 °F 50% 30.33 in 6.2 mi NNE 6.9 mph - N/A   Mostly Cloudy
1:20 AM 46.4 °F 42.9 °F 28.4 °F 50% 30.33 in 6.2 mi NNE 6.9 mph - N/A   Mostly Cloudy
1:50 AM 44.6 °F 40.7 °F 30.2 °F 57% 30.33 in 6.2 mi North 6.9 mph - N/A   Mostly Cloudy
2:00 AM 45 °F - 29 °F 42% 30.34 in 6 mi North 6.9 mph - -   Mostly Cloudy
2:20 AM 46.4 °F 42.9 °F 28.4 °F 50% 30.33 in 6.2 mi NNE 6.9 mph - N/A   Mostly Cloudy
2:50 AM 46.4 °F 43.5 °F 28.4 °F 50% 30.33 in 6.2 mi NE 5.8 mph - N/A   Mostly Cloudy
3:20 AM 46.4 °F 43.5 °F 28.4 °F 50% 30.33 in 6.2 mi ENE 5.8 mph - N/A   Mostly Cloudy
3:50 AM 46.4 °F 44.3 °F 28.4 °F 50% 30.33 in 6.2 mi ENE 4.6 mph - N/A   Mostly Cloudy
4:20 AM 46.4 °F 43.5 °F 28.4 °F 50% 30.33 in 6.2 mi ENE 5.8 mph - N/A   Mostly Cloudy
4:50 AM 46.4 °F 43.5 °F 28.4 °F 50% 30.33 in 6.2 mi ENE 5.8 mph - N/A   Mostly Cloudy
5:20 AM 46.4 °F 43.5 °F 28.4 °F 50% 30.33 in 6.2 mi NE 5.8 mph - N/A   Mostly Cloudy
5:50 AM 44.6 °F 38.8 °F 35.6 °F 71% 30.33 in 6.2 mi North 11.5 mph - N/A   Mostly Cloudy
6:50 AM 42.8 °F 36.6 °F 35.6 °F 76% 30.33 in 6.2 mi North 11.5 mph - N/A   Mostly Cloudy
7:20 AM 44.6 °F 39.2 °F 35.6 °F 71% 30.36 in 6.2 mi North 10.4 mph - N/A   Mostly Cloudy
7:50 AM 44.6 °F 39.7 °F 35.6 °F 71% 30.36 in 6.2 mi North 9.2 mph - N/A   Mostly Cloudy
8:20 AM 44.6 °F 39.7 °F 35.6 °F 71% 30.36 in 6.2 mi North 9.2 mph - N/A   Mostly Cloudy
8:50 AM 44.6 °F 39.2 °F 35.6 °F 71% 30.36 in 4.3 mi North 10.4 mph - N/A   Mostly Cloudy
9:20 AM 44.6 °F 39.2 °F 35.6 °F 71% 30.36 in 5.0 mi North 10.4 mph - N/A   Mostly Cloudy
9:50 AM 46.4 °F 42.4 °F 35.6 °F 66% 30.36 in 5.0 mi North 8.1 mph - N/A   Mostly Cloudy
10:20 AM 46.4 °F 41.5 °F 35.6 °F 66% 30.36 in 5.0 mi North 10.4 mph - N/A   Mostly Cloudy
10:50 AM 48.2 °F - 35.6 °F 62% 30.36 in 5.0 mi NNE 8.1 mph - N/A   Mostly Cloudy
11:20 AM 48.2 °F - 33.8 °F 58% 30.36 in 5.0 mi Variable 8.1 mph - N/A   Mostly Cloudy
11:50 AM 50.0 °F - 35.6 °F 58% 30.36 in 4.3 mi Variable 5.8 mph - N/A   Mostly Cloudy
12:20 PM 48.2 °F - 35.6 °F 62% 30.33 in 5.0 mi Variable 4.6 mph - N/A   Mostly Cloudy
12:50 PM 48.2 °F - 35.6 °F 62% 30.33 in 4.3 mi Variable 6.9 mph - N/A   Mostly Cloudy
1:20 PM 48.2 °F - 37.4 °F 66% 30.33 in 6.2 mi North 8.1 mph - N/A   Mostly Cloudy
1:50 PM 48.2 °F - 37.4 °F 66% 30.33 in 4.3 mi North 10.4 mph - N/A   Mostly Cloudy
2:00 PM 47 °F - 36 °F 56% 30.34 in 4 mi North 10.4 mph - -   Mist
2:20 PM 48.2 °F - 35.6 °F 62% 30.30 in 3.7 mi North 8.1 mph - N/A   Mostly Cloudy
2:50 PM 48.2 °F - 37.4 °F 66% 30.30 in 3.7 mi Variable 3.5 mph - N/A   Mostly Cloudy
3:20 PM 48.2 °F - 37.4 °F 66% 30.30 in 3.7 mi ESE 5.8 mph - N/A   Mostly Cloudy
3:50 PM 48.2 °F - 37.4 °F 66% 30.30 in 4.3 mi Variable 2.3 mph - N/A   Mostly Cloudy
4:20 PM 46.4 °F 45.2 °F 37.4 °F 71% 30.30 in 4.3 mi SSE 3.5 mph - N/A   Mostly Cloudy
4:50 PM 46.4 °F 45.2 °F 37.4 °F 71% 30.30 in 5.0 mi Variable 3.5 mph - N/A   Mostly Cloudy
5:20 PM 48.2 °F - 37.4 °F 66% 30.30 in 5.0 mi NNE 9.2 mph - N/A   Mostly Cloudy
5:50 PM 46.4 °F 42.4 °F 37.4 °F 71% 30.30 in 5.0 mi NNE 8.1 mph - N/A   Mostly Cloudy
6:20 PM 46.4 °F 42.4 °F 37.4 °F 71% 30.30 in 5.0 mi North 8.1 mph - N/A   Mostly Cloudy
6:50 PM 46.4 °F 42.9 °F 37.4 °F 71% 30.30 in 4.3 mi North 6.9 mph - N/A   Mostly Cloudy
7:20 PM 46.4 °F 42.4 °F 37.4 °F 71% 30.30 in 4.3 mi NNW 8.1 mph - N/A   Mostly Cloudy
7:50 PM 46.4 °F 42.9 °F 37.4 °F 71% 30.30 in 4.3 mi NNW 6.9 mph - N/A   Mostly Cloudy
8:00 PM 46 °F - 37 °F 62% 30.32 in 4 mi NNW 6.9 mph - -   Mist
8:20 PM 46.4 °F 42.4 °F 37.4 °F 71% 30.30 in 4.3 mi North 8.1 mph - N/A   Scattered Clouds
8:50 PM 46.4 °F 41.9 °F 37.4 °F 71% 30.30 in 4.3 mi North 9.2 mph - N/A   Scattered Clouds
9:20 PM 46.4 °F 44.3 °F 37.4 °F 71% 30.30 in 4.3 mi North 4.6 mph - N/A   Scattered Clouds
9:50 PM 46.4 °F 42.9 °F 37.4 °F 71% 30.30 in 4.3 mi NNE 6.9 mph - N/A   Scattered Clouds
10:20 PM 48.2 °F - 37.4 °F 66% 30.30 in 4.3 mi NE 5.8 mph - N/A   Scattered Clouds
10:50 PM 46.4 °F 43.5 °F 37.4 °F 71% 30.30 in 4.3 mi NE 5.8 mph - N/A   Scattered Clouds
11:20 PM 46.4 °F 45.2 °F 37.4 °F 71% 30.30 in 4.3 mi Variable 3.5 mph - N/A   Scattered Clouds
11:50 PM 44.6 °F 40.7 °F 37.4 °F 76% 30.30 in 4.3 mi NNW 6.9 mph - N/A   Scattered Clouds